Weather History for KBIV - December, 2013

Change the Weather History Date:

Monday, December 9, 2013

  Actual Average Record
Temperature  
Mean Temperature 26 °F 33 °F  
Max Temperature 31 °F 38 °F 60 °F (1991)
Min Temperature 21 °F 28 °F 4 °F (1964)
Degree Days  
Heating Degree Days 39 32  
Month to date heating degree days 301 276  
Since 1 July heating degree days 1537 1499  
Cooling Degree Days 0 0  
Month to date cooling degree days 0 0  
Year to date cooling degree days 813 693  
Moisture  
Dew Point 16 °F    
Average Humidity 80    
Maximum Humidity 92    
Minimum Humidity 68    
Precipitation  
Precipitation T in 0.09 in 0.71 in (1974)
Month to date precipitation 0.44 0.88  
Year to date precipitation 38.95 35.04  
Sea Level Pressure  
Sea Level Pressure 30.02 in    
Wind  
Wind Speed 17 mph (WSW)    
Max Wind Speed 30 mph    
Max Gust Speed 39 mph    
Visibility 9 miles    
Events Snow    
T = Trace of Precipitation, MM = Missing Value Source: NWS Daily Summary

Daily Weather History Graph

Daily Weather History Graph

Search for Another Location

Airport or City:

Trip Planner

Search our weather history database for the weather conditions in past years. The results will help you decide how hot, cold, wet, or windy it might be!

Date:

Astronomy

Dec. 09, 2013 Rise Set
Actual Time 8:03 AM EST 5:10 PM EST
Civil Twilight 7:31 AM EST 5:42 PM EST
Nautical Twilight 6:55 AM EST 6:17 PM EST
Astronomical Twilight 6:21 AM EST 6:52 PM EST
Moon 12:48 PM EST (12/9) 12:06 AM EST (12/9)
Length of Visible Light 10h 11m
Length of Day
9h 07m
Waxing Crescent, 51% of the Moon is Illuminated
Dec 9
Waxing Crescent
Dec 17
Full
Dec 25
Last Quarter
Jan 1
New
Jan 7
First Quarter

Hourly Weather History & Observations

Time (EST) Temp. Windchill Dew Point Humidity Pressure Visibility Wind Dir Wind Speed Gust Speed Precip Events Conditions
12:18 AM 21.9 °F 12.5 °F 19.0 °F 89% 29.94 in 3.0 mi East 8.1 mph - 0.00 in Snow Light Snow
12:53 AM 21.9 °F 17.2 °F 19.0 °F 89% 29.95 in 7.0 mi East 3.5 mph - 0.00 in   Overcast
1:45 AM 21.9 °F 17.2 °F 19.0 °F 89% 29.89 in 8.0 mi ESE 3.5 mph - N/A   Overcast
1:53 AM 21.9 °F 17.2 °F 19.0 °F 89% 29.92 in 8.0 mi East 3.5 mph - N/A   Overcast
2:40 AM 23.0 °F 18.4 °F 19.9 °F 88% 29.88 in 7.0 mi Variable 3.5 mph - N/A   Overcast
2:53 AM 23.0 °F 18.4 °F 19.9 °F 88% 29.91 in 7.0 mi ESE 3.5 mph - N/A   Overcast
3:14 AM 24.1 °F 16.0 °F 21.0 °F 88% 29.87 in 7.0 mi SE 6.9 mph - N/A   Overcast
3:53 AM 25.0 °F 18.1 °F 21.9 °F 88% 29.89 in 6.0 mi South 5.8 mph - N/A   Overcast
4:08 AM 30.0 °F 20.0 °F 26.1 °F 85% 29.85 in 8.0 mi WSW 12.7 mph 19.6 mph N/A   Overcast
4:24 AM 30.0 °F 17.9 °F 25.0 °F 82% 29.85 in 10.0 mi WSW 18.4 mph - N/A   Overcast
4:53 AM 30.0 °F 18.3 °F 25.0 °F 82% 29.88 in 10.0 mi WSW 17.3 mph - N/A   Overcast
5:53 AM 30.0 °F 17.2 °F 25.0 °F 82% 29.89 in 6.0 mi WSW 20.7 mph 26.5 mph N/A   Haze
6:53 AM 28.9 °F 16.1 °F 24.1 °F 82% 29.91 in 4.0 mi West 19.6 mph 28.8 mph 0.00 in Snow Light Snow
7:53 AM 28.9 °F 15.8 °F 23.0 °F 78% 29.93 in 6.0 mi West 20.7 mph 27.6 mph 0.00 in Snow Light Snow
8:53 AM 28.0 °F 14.9 °F 21.0 °F 75% 29.96 in 10.0 mi West 19.6 mph 26.5 mph 0.00 in   Overcast
9:53 AM 28.0 °F 14.3 °F 19.9 °F 72% 30.01 in 8.0 mi WSW 21.9 mph 29.9 mph N/A   Overcast
10:53 AM 27.0 °F 12.2 °F 19.0 °F 72% 30.03 in 10.0 mi West 24.2 mph 29.9 mph N/A   Overcast
11:53 AM 26.1 °F 11.6 °F 19.0 °F 75% 30.01 in 10.0 mi WSW 21.9 mph 27.6 mph N/A   Overcast
12:53 PM 25.0 °F 9.5 °F 17.1 °F 72% 30.02 in 10.0 mi West 24.2 mph 31.1 mph N/A   Overcast
1:53 PM 24.1 °F 7.7 °F 16.0 °F 71% 30.05 in 9.0 mi WSW 26.5 mph 33.4 mph N/A   Overcast
2:53 PM 24.1 °F 9.0 °F 15.1 °F 69% 30.06 in 10.0 mi WSW 21.9 mph 31.1 mph 0.00 in   Overcast
3:34 PM 24.1 °F 8.3 °F 15.1 °F 69% 30.03 in 10.0 mi WSW 24.2 mph 32.2 mph N/A   Overcast
3:46 PM 24.1 °F 8.0 °F 16.0 °F 71% 30.03 in 8.0 mi WSW 25.3 mph 34.5 mph N/A   Overcast
3:53 PM 24.1 °F 8.3 °F 15.1 °F 69% 30.06 in 8.0 mi WSW 24.2 mph 34.5 mph 0.00 in Snow Light Snow
4:53 PM 24.1 °F 8.3 °F 15.1 °F 69% 30.09 in 9.0 mi WSW 24.2 mph 34.5 mph 0.00 in   Overcast
5:01 PM 24.1 °F 9.8 °F 15.1 °F 69% 30.06 in 10.0 mi WSW 19.6 mph 32.2 mph N/A   Overcast
5:53 PM 23.0 °F 6.3 °F 14.0 °F 68% 30.10 in 7.0 mi West 26.5 mph 40.3 mph N/A   Overcast
6:26 PM 21.9 °F 5.5 °F 12.0 °F 66% 30.08 in 10.0 mi West 24.2 mph 33.4 mph N/A   Overcast
6:43 PM 21.9 °F 7.8 °F 12.0 °F 66% 30.09 in 10.0 mi West 17.3 mph 28.8 mph N/A   Overcast
6:53 PM 21.9 °F 6.5 °F 12.0 °F 66% 30.12 in 10.0 mi West 20.7 mph 31.1 mph N/A   Overcast
7:53 PM 19.9 °F 4.8 °F 9.0 °F 62% 30.13 in 10.0 mi West 18.4 mph 29.9 mph N/A   Mostly Cloudy
8:14 PM 19.9 °F 4.8 °F 7.0 °F 57% 30.10 in 10.0 mi West 18.4 mph 26.5 mph N/A   Scattered Clouds
8:49 PM 19.4 °F 5.0 °F 8.6 °F 63% 30.12 in 10.0 mi West 16.1 mph 25.3 mph N/A   Mostly Cloudy
8:53 PM 19.0 °F 4.5 °F 9.0 °F 65% 30.16 in 10.0 mi West 16.1 mph 25.3 mph N/A   Mostly Cloudy
9:53 PM 19.0 °F 6.8 °F 8.1 °F 62% 30.14 in 10.0 mi West 11.5 mph 26.5 mph N/A   Overcast
10:05 PM 19.0 °F 4.0 °F 8.1 °F 62% 30.11 in 10.0 mi West 17.3 mph 25.3 mph N/A   Overcast
10:13 PM 19.0 °F 5.6 °F 8.1 °F 62% 30.11 in 10.0 mi West 13.8 mph 25.3 mph N/A   Overcast
10:40 PM 18.0 °F 6.1 °F 6.1 °F 60% 30.12 in 10.0 mi West 10.4 mph 19.6 mph N/A   Overcast
10:53 PM 18.0 °F 4.8 °F 7.0 °F 62% 30.15 in 10.0 mi West 12.7 mph 23.0 mph N/A   Overcast
11:41 PM 18.0 °F 4.2 °F 7.0 °F 62% 30.12 in 10.0 mi West 13.8 mph 20.7 mph N/A   Overcast
11:53 PM 18.0 °F 5.4 °F 8.1 °F 65% 30.16 in 8.0 mi West 11.5 mph 19.6 mph 0.00 in Snow Light Snow